Theta_e
294 294 295 295 294 293 292 291 291 304 306 303 301 301 300 302 302 304 304 303 303 303 303 303 303 305 305 307 308 309 308 306 307 306 304 303 303 306 305 312 310 306 305 314
294 294 294 294 294 295 292 291 291 297 304 301 301 299 301 301 302 303 303 303 303 303 304 305 302 302 304 306 308 309 308 310 313 311 304 300 304 304 306 304 304 307 312 313
295 294 293 292 292 293 292 291 292 299 302 302 301 302 301 302 304 303 303 303 303 304 305 304 305 302 303 304 307 309 309 308 310 311 309 305 305 304 305 307 309 312 311 311
294 295 294 292 291 292 290 291 292 297 295 300 300 300 301 301 303 303 303 304 303 304 304 303 304 303 301 301 303 306 308 309 306 307 307 305 306 306 304 307 308 311 312 310
293 293 293 293 292 291 290 292 292 292 292 293 295 296 298 299 299 300 301 301 297 300 306 305 305 302 302 301 301 303 300 307 305 307 307 308 308 308 306 306 307 308 308 310
292 291 292 292 292 292 291 291 291 291 291 290 291 292 294 295 294 296 297 294 294 297 299 296 296 296 298 302 304 303 302 300 300 305 303 305 306 305 306 307 305 308 309 309
292 291 291 292 291 292 291 291 290 291 291 291 291 291 291 291 291 293 292 292 292 294 294 293 295 296 297 298 300 303 303 302 302 306 302 306 305 302 304 305 306 306 307 308
292 291 291 291 291 291 291 291 290 291 290 291 290 291 291 291 291 290 291 291 291 291 291 294 295 296 299 299 300 301 302 303 305 306 305 304 304 303 302 303 304 304 305 306
291 291 291 291 291 291 292 290 291 290 289 288 290 290 291 291 289 289 291 291 291 291 291 293 293 292 298 298 301 298 301 302 304 306 307 306 302 302 301 301 304 301 302 302
291 290 291 291 291 291 291 290 290 290 289 289 289 290 289 290 291 291 290 290 291 290 291 293 293 293 295 298 299 300 299 301 304 305 307 305 296 296 299 302 301 298 300 300
291 289 290 290 291 290 291 291 290 290 290 290 289 289 290 290 290 290 290 289 289 290 290 292 293 293 295 295 296 297 299 297 298 303 305 306 291 297 298 295 294 296 298 298
290 290 289 290 290 290 291 290 290 289 291 289 289 289 288 289 289 289 289 289 289 290 287 286 291 291 290 293 297 292 295 290 291 294 293 290 288 288 291 292 291 293 294 296
290 290 290 291 291 291 291 289 290 290 289 289 288 287 288 288 289 289 289 289 290 290 291 289 289 289 291 290 291 291 285 285 290 286 290 287 286 286 288 290 290 291 293 295
290 290 290 290 290 289 289 289 289 289 289 287 287 288 288 289 290 290 289 289 290 290 291 291 289 286 290 288 286 285 283 284 284 287 287 286 286 284 285 287 290 290 291 292
289 290 289 289 289 289 289 288 287 288 288 287 288 288 287 289 288 290 290 289 289 290 290 287 285 288 290 286 282 279 280 282 283 284 285 285 285 283 285 285 286 288 288 289
290 289 289 289 289 289 288 287 288 288 288 287 286 287 287 288 289 289 289 289 288 288 290 288 286 285 286 282 279 279 279 281 281 282 284 282 283 283 284 284 285 286 287 286
287 289 288 287 286 287 288 287 288 288 288 287 286 286 288 286 287 289 287 285 284 285 285 285 283 282 282 280 279 278 278 280 280 281 282 281 281 281 283 283 283 285 287 287
286 286 286 287 287 287 288 288 288 288 287 286 281 284 285 286 287 288 285 284 283 282 283 283 283 281 280 278 278 277 278 279 279 280 280 280 281 282 282 283 284 284 283 284
286 286 287 287 286 286 287 288 288 288 287 287 283 283 284 285 286 287 287 284 280 282 278 279 280 279 278 278 277 277 277 277 277 278 279 280 280 279 280 281 281 281 281 282
286 286 286 286 286 287 288 287 287 287 285 286 284 284 284 284 285 287 288 284 276 275 281 281 279 277 277 276 277 276 276 277 277 277 277 277 278 278 278 279 279 279 280 280
286 286 286 285 285 285 285 285 283 283 280 283 283 283 283 284 285 287 287 275 274 274 282 279 277 275 276 276 276 276 276 276 276 276 276 276 276 277 277 277 278 278 279 279
285 285 285 285 283 283 276 271 278 276 280 282 282 282 282 284 285 286 284 279 278 280 280 277 276 276 276 275 275 275 275 275 275 275 275 276 275 276 276 277 277 277 277 278
285 284 284 282 280 276 274 274 273 276 281 282 281 280 281 282 282 283 279 280 281 280 276 277 276 275 275 274 274 274 274 274 274 274 275 275 275 276 276 276 276 276 277 277
284 283 276 273 273 277 277 278 278 279 280 280 279 280 278 279 277 276 278 278 277 274 275 275 273 274 274 274 273 273 273 274 274 274 274 274 275 275 275 275 275 276 276 276
282 281 274 272 279 280 278 277 277 277 277 277 279 279 277 273 275 277 276 275 275 277 276 276 275 274 274 273 273 273 273 273 274 274 274 274 274 274 275 275 275 275 276 276
280 279 274 278 277 277 277 276 276 276 276 277 277 271 269 271 271 274 274 273 275 276 275 275 274 274 273 273 273 273 273 273 273 273 274 274 274 274 274 275 275 275 275 276
280 279 279 278 277 276 275 275 275 276 277 271 271 269 269 269 266 269 274 273 275 274 274 273 273 273 272 273 273 273 273 273 273 273 273 273 274 274 275 275 275 275 275 276
Wind_Speed
18 17 20 23 24 25 18 8 2 2 8 3 4 3 5 6 5 5 6 4 6 5 5 6 6 8 7 10 12 10 8 4 5 11 3 6 5 9 8 5 5 3 1 10
18 18 18 17 21 18 19 12 7 9 15 4 6 4 4 5 5 8 4 7 7 5 5 3 7 6 10 11 9 8 7 4 4 3 1 2 5 7 11 2 3 8 5 7
18 15 17 16 17 15 15 6 3 4 13 13 3 7 6 5 5 5 7 4 6 8 14 12 9 5 4 2 9 9 9 5 6 10 5 4 5 8 14 15 5 14 19 23
19 17 15 15 14 13 11 3 3 4 3 5 6 4 7 12 7 5 1 2 2 3 5 5 13 6 4 7 6 6 9 14 8 10 11 5 5 6 13 17 24 13 17 21
16 20 17 16 15 14 9 4 4 8 10 17 11 9 7 12 5 5 5 8 9 6 5 4 4 1 2 4 5 2 1 10 6 15 12 16 20 18 11 18 22 19 22 32
18 16 18 20 16 12 4 2 3 4 4 3 3 3 4 4 9 5 4 8 9 8 4 9 15 15 18 8 3 1 2 2 3 13 9 10 13 16 17 17 14 15 18 26
22 20 19 18 16 13 9 5 5 3 4 3 4 8 13 13 12 10 16 16 9 8 17 23 18 19 21 20 17 16 6 3 5 5 2 13 11 6 9 18 19 20 22 23
24 25 22 19 17 13 12 8 6 4 3 4 9 8 8 14 14 6 11 19 16 14 10 3 5 3 4 12 19 19 19 12 4 4 9 13 15 6 5 7 8 7 15 21
28 27 23 21 18 14 15 10 10 6 2 4 6 7 8 4 6 5 10 11 14 9 3 3 5 6 2 5 4 3 15 17 11 7 5 10 4 8 10 6 19 7 8 7
28 25 23 19 16 13 15 12 12 10 5 13 9 5 5 6 4 4 4 5 6 2 2 3 5 4 4 4 6 5 3 3 13 13 11 4 12 22 19 6 4 15 14 15
27 22 20 15 9 10 15 11 7 11 6 18 20 12 9 10 6 4 4 6 2 2 1 2 2 2 1 4 4 5 3 3 3 4 8 11 30 13 6 12 20 18 16 16
24 20 18 14 8 8 12 1 4 4 10 15 23 24 24 22 24 19 6 4 2 2 1 2 2 2 3 6 2 7 2 5 2 2 1 6 16 15 24 22 20 20 23 21
22 20 18 15 8 9 3 3 5 6 6 17 10 13 3 13 6 4 8 7 8 6 8 3 1 2 2 3 3 4 11 14 2 6 5 17 21 27 29 22 18 19 14 10
18 13 9 11 8 7 3 4 4 6 4 2 6 5 16 4 8 7 17 21 10 10 7 6 1 1 3 2 4 4 5 10 9 4 8 18 26 32 29 23 17 16 15 10
13 12 9 7 7 7 7 9 4 2 3 3 9 12 5 10 12 7 6 12 17 12 2 2 2 1 2 4 4 3 10 5 4 3 12 9 12 28 23 26 23 20 24 21
12 9 9 10 8 9 8 0 5 1 2 2 3 5 3 12 6 8 4 1 2 4 3 4 6 9 5 3 3 11 24 19 19 8 7 17 10 23 22 24 25 25 26 29
14 12 12 11 9 5 1 1 2 7 1 1 4 5 4 14 7 5 8 13 10 6 5 5 5 10 7 3 3 19 23 15 23 23 9 15 23 17 26 27 28 31 35 33
16 12 9 4 4 3 2 1 2 3 1 2 1 3 6 13 5 4 4 4 7 12 5 4 5 6 6 4 10 17 23 17 19 20 18 16 19 25 27 26 28 32 32 31
11 7 4 3 4 3 5 6 6 6 3 3 3 2 3 11 4 3 0 3 3 5 3 4 5 3 5 5 13 19 21 17 18 16 19 22 25 25 24 24 26 28 27 26
6 4 3 3 7 7 3 3 4 4 5 5 3 7 3 7 4 2 1 3 2 2 1 5 3 3 5 16 15 17 16 17 19 24 27 25 24 22 20 21 20 20 20 20
6 4 4 7 6 4 3 4 6 7 5 9 7 6 5 5 3 2 4 2 0 3 1 3 2 2 8 18 17 15 16 16 16 14 13 13 14 15 16 17 17 16 15 16
6 4 5 7 8 7 6 2 6 5 1 11 7 11 9 7 5 3 6 3 3 2 2 3 2 1 14 18 17 15 15 16 15 15 14 14 13 15 13 13 14 13 12 11
5 4 5 8 9 8 6 6 5 4 11 6 16 8 6 6 7 2 3 4 3 2 4 2 1 8 15 18 15 15 14 14 14 13 13 13 13 12 13 13 12 12 12 11
6 7 7 4 5 2 0 2 4 9 10 18 19 6 4 5 5 2 5 2 4 3 3 1 1 10 16 17 14 14 15 16 15 14 14 13 15 13 11 12 12 13 12 12
6 6 3 2 6 5 12 12 11 9 14 13 8 4 4 4 4 3 3 5 4 3 2 2 7 11 16 18 15 16 16 17 15 14 14 15 15 13 12 12 12 12 11 11
6 8 4 10 5 8 10 14 12 15 16 6 2 2 4 5 2 5 4 3 3 2 3 10 10 13 16 17 14 15 15 15 13 13 14 15 16 15 14 13 11 12 13 12
4 4 5 6 4 8 14 14 17 16 6 2 4 5 2 3 4 4 3 2 2 8 9 12 9 12 14 15 12 13 14 14 12 12 13 14 14 12 12 13 14 14 13 13
Wind_Direction
330 330 333 338 341 337 332 339 336 243 174 178 218 221 207 236 246 226 209 209 203 225 239 225 223 217 230 176 150 170 211 171 200 216 242 200 184 197 168 166 217 233 212 266
336 342 341 335 334 347 340 319 266 225 197 220 233 274 269 252 221 247 228 236 204 184 213 273 219 226 249 209 172 187 179 217 244 225 330 358 210 203 206 134 95 210 220 257
327 337 331 333 339 340 331 290 316 247 212 241 197 268 268 253 263 257 250 258 249 252 255 244 251 232 293 202 214 210 182 195 208 230 225 138 199 205 209 208 221 245 236 262
327 317 324 332 339 344 338 272 269 315 292 248 287 301 283 276 276 255 309 280 237 240 257 243 247 258 275 240 237 219 174 244 227 246 262 231 239 222 200 206 231 237 257 251
311 321 322 313 319 327 341 313 337 338 316 326 322 309 274 288 328 323 276 262 353 319 256 241 280 303 212 258 341 230 264 247 205 258 256 261 262 254 213 219 229 243 250 262
334 318 315 312 309 302 313 263 313 312 278 315 323 287 332 342 345 288 32 15 336 307 335 326 302 287 288 282 282 309 307 255 199 254 234 257 265 235 228 232 220 233 241 256
331 326 315 308 306 287 278 257 281 265 269 222 275 287 289 292 294 257 288 301 256 255 295 304 294 265 253 245 246 228 227 242 255 251 172 238 245 185 221 230 238 231 247 260
323 318 311 305 293 285 259 247 231 225 269 254 282 283 290 296 292 261 275 281 279 306 310 284 299 271 266 233 228 227 212 218 230 234 231 267 278 282 207 198 253 245 246 252
324 324 318 304 290 277 262 248 244 221 245 245 252 297 278 284 287 269 250 270 287 306 240 186 217 244 270 271 262 250 218 216 213 223 230 248 350 254 325 242 265 3 347 341
326 329 322 301 284 265 256 241 239 243 225 274 263 228 270 270 279 282 308 342 309 282 255 252 237 252 302 246 238 240 135 198 230 234 246 263 0 328 309 177 320 325 329 311
332 336 334 330 291 276 244 237 247 240 239 279 278 269 261 250 257 271 349 315 283 313 255 290 313 268 335 258 271 292 240 212 202 224 233 249 360 358 350 332 311 307 306 307
332 333 335 325 313 317 280 165 214 243 242 270 289 287 288 282 273 264 248 261 260 251 352 358 323 319 291 7 276 25 59 11 286 45 74 1 351 341 332 333 316 318 317 324
331 334 332 324 274 297 82 281 269 272 271 299 303 305 274 333 277 253 216 231 223 228 242 188 231 254 356 318 23 352 349 11 16 338 36 349 12 1 2 345 349 351 335 336
321 334 357 11 17 36 345 296 288 271 251 282 286 321 316 2 346 289 246 253 250 253 275 259 174 183 62 60 74 59 342 325 317 282 353 343 11 2 3 3 17 26 34 45
316 308 333 333 327 326 324 315 279 205 224 267 296 326 52 0 339 11 334 249 253 266 243 204 227 196 101 74 72 64 334 334 354 300 338 341 333 6 24 21 36 55 53 58
2 347 335 328 320 312 321 16 176 40 296 293 318 328 4 358 358 345 336 348 196 233 245 25 42 13 47 77 69 350 350 355 358 320 339 16 9 29 41 43 43 66 77 68
335 326 317 318 319 299 241 318 281 294 3 278 313 325 348 357 23 21 33 50 50 47 55 47 39 8 56 54 38 336 346 7 18 35 52 13 22 19 51 52 59 77 79 81
336 331 326 351 43 49 54 190 285 322 25 45 55 301 344 6 348 11 40 73 44 34 58 40 25 30 53 59 342 352 8 11 23 30 48 45 42 47 48 51 56 60 58 69
335 349 46 66 25 29 343 315 330 189 87 83 64 335 314 338 321 316 33 88 63 66 40 25 62 26 44 340 354 5 14 11 3 16 30 36 39 36 36 41 46 48 49 54
11 38 44 37 351 352 352 20 36 48 38 44 65 342 291 320 312 303 246 72 135 70 1 93 79 88 25 11 13 8 12 9 11 13 13 13 19 23 22 31 37 40 40 45
33 34 34 11 6 14 31 44 41 355 29 8 348 346 324 311 293 307 7 170 1 72 297 96 66 22 5 6 8 11 8 12 15 19 17 18 11 13 16 22 28 32 33 39
25 17 19 18 28 28 63 352 358 38 351 346 349 330 315 307 325 330 6 95 43 74 40 73 70 358 356 4 3 8 7 8 13 13 14 13 13 14 19 19 25 23 24 29
23 31 45 15 3 35 56 348 321 346 341 337 334 326 319 321 1 345 37 66 56 88 45 67 77 352 357 360 357 0 4 7 12 13 18 17 16 15 15 12 13 9 11 12
48 37 23 69 358 7 30 259 287 289 297 320 320 300 345 340 3 352 69 349 47 56 54 61 293 358 355 356 355 359 359 2 6 11 13 14 11 11 7 6 2 3 6 6
60 41 45 33 330 291 331 329 323 330 319 327 320 300 351 354 50 25 44 35 51 38 42 20 356 352 353 355 356 358 357 359 4 6 7 8 7 9 10 7 7 3 0 358
58 48 39 350 357 326 336 341 334 343 336 341 320 47 52 32 38 46 23 68 39 20 347 342 339 344 349 352 353 354 355 357 359 1 1 0 1 4 4 5 3 0 358 356
64 64 20 360 305 316 330 337 341 350 351 44 49 51 239 358 44 30 15 51 350 333 336 336 338 338 341 343 346 350 352 354 355 358 358 357 356 356 355 2 5 2 358 354